Погода в Воскресенском

Россия / Калужская область     54°34′13″N   36°24′43″E
темп.,
°C
ветер,
м/с
пор.,
м/с
влажн.,
%
обл.,
%
осадки,
мм/ч
давл.,
гПа
погр.,
м
26 июля, пн
пн2600:00+16ююв2264100 0.0 102215
03:00+17ююв1157100 0.0 102312
06:00+16вюв226339 0.0 102330
09:00+21ююв12490 0.0 1023445
12:00+25ююз23390 0.0 10221959
15:00+26зюз234299 0.0 10211768
18:00+22ссв126587 0.0 102144
21:00+18ююв11746 0.1 102212
27 июля, вт
вт2700:00+18юз2276100 0.0 102234
03:00+17зюз228824 0.6 102219
06:00+16ююз229196 0.2 102247
09:00+22зюз22704 0.2 1022356
12:00+27зюз33464 0.0 10211586
15:00+27зюз344694 0.0 1019974
18:00+26сз234859 0.0 1018682
21:00+21вюв356931 0.1 1018115
28 июля, ср
ср2800:00+18ююз227952 0.4 101822
03:00+16ююз348643 0.4 101866
06:00+18ююз268283 0.0 1016121
09:00+23ю345669 0.0 1015424
12:00+19юз487797 0.1 1015390
15:00+18ю41193100 0.6 1015561
18:00+18ююв51286100 1.0 1012544
21:00+16ююв249493 1.1 101093
29 июля, чт
чт2900:00+16ю279824 0.4 1008166
03:00+17з4109970 0.4 1008348
06:00+17з499893 0.0 1008394
09:00+20зсз478569 0.0 1008576
12:00+26зсз574895 0.0 10081706
15:00+27з5644100 0.0 10072220
18:00+24зюз386289 0.0 1007286
21:00+20з2277100 0.1 100716
30 июля, пт
пт3000:00+18зсз239072 0.1 100746
03:00+17сз229328 0.2 100838
06:00+17зсз22903 0.0 100852
09:00+22зсз336232 0.0 1008487
12:00+27зюз344822 0.0 10081590
15:00+27з664895 0.1 10072070
18:00+27зюз474684 0.1 10071830
21:00+21зюз225996 0.1 100731